QPF
0.00 0.01 0.02 0.02 0.01 0.01 0.01 0.01 0.01 0.01 0.01 0.01 0.02 0.03 0.03 0.03 0.04 0.05 0.04 0.08 0.12 0.06 0.04 0.05 0.06 0.07 0.07 0.07 0.05 0.05 0.07 0.11 0.12 0.11 0.10 0.09 0.10 0.13 0.12 0.08 0.07 0.05 0.07
0.00 0.00 0.01 0.02 0.01 0.01 0.01 0.01 0.01 0.01 0.01 0.01 0.02 0.02 0.03 0.03 0.03 0.05 0.05 0.08 0.13 0.09 0.06 0.06 0.07 0.07 0.06 0.06 0.07 0.06 0.06 0.09 0.19 0.15 0.12 0.11 0.10 0.10 0.12 0.08 0.06 0.05 0.04
0.00 0.00 0.00 0.01 0.01 0.01 0.01 0.02 0.01 0.01 0.02 0.01 0.02 0.02 0.03 0.04 0.03 0.04 0.08 0.10 0.13 0.12 0.09 0.08 0.07 0.08 0.08 0.08 0.08 0.08 0.08 0.08 0.18 0.19 0.12 0.09 0.09 0.09 0.11 0.10 0.07 0.05 0.04
0.00 0.01 0.01 0.01 0.01 0.01 0.01 0.01 0.01 0.01 0.01 0.02 0.02 0.03 0.04 0.05 0.05 0.06 0.10 0.12 0.14 0.15 0.11 0.09 0.08 0.08 0.09 0.10 0.10 0.10 0.09 0.09 0.17 0.16 0.10 0.07 0.08 0.10 0.10 0.10 0.08 0.06 0.06
0.00 0.00 0.01 0.01 0.01 0.00 0.00 0.01 0.01 0.01 0.01 0.01 0.02 0.03 0.05 0.06 0.06 0.06 0.08 0.09 0.13 0.13 0.11 0.08 0.08 0.07 0.07 0.08 0.09 0.09 0.08 0.09 0.13 0.10 0.06 0.06 0.08 0.10 0.08 0.10 0.10 0.07 0.07
0.00 0.00 0.01 0.01 0.01 0.01 0.01 0.01 0.02 0.03 0.02 0.02 0.02 0.02 0.04 0.06 0.06 0.06 0.07 0.06 0.09 0.11 0.11 0.09 0.09 0.07 0.07 0.07 0.08 0.09 0.09 0.08 0.09 0.05 0.06 0.08 0.08 0.08 0.10 0.11 0.09 0.08 0.08
0.00 0.01 0.01 0.01 0.01 0.01 0.01 0.01 0.01 0.02 0.04 0.04 0.02 0.02 0.03 0.05 0.05 0.06 0.07 0.07 0.07 0.09 0.08 0.07 0.07 0.06 0.06 0.06 0.07 0.07 0.08 0.08 0.07 0.05 0.05 0.06 0.06 0.06 0.07 0.09 0.09 0.10 0.07
0.01 0.01 0.02 0.01 0.01 0.02 0.02 0.01 0.01 0.01 0.02 0.03 0.02 0.01 0.02 0.04 0.05 0.06 0.07 0.07 0.06 0.07 0.09 0.07 0.05 0.04 0.04 0.06 0.08 0.09 0.10 0.09 0.09 0.07 0.06 0.05 0.04 0.05 0.07 0.09 0.10 0.10 0.07
0.01 0.02 0.03 0.03 0.02 0.01 0.01 0.01 0.01 0.01 0.01 0.02 0.02 0.02 0.02 0.03 0.05 0.06 0.05 0.05 0.05 0.07 0.08 0.07 0.05 0.04 0.04 0.06 0.08 0.11 0.14 0.10 0.07 0.09 0.06 0.05 0.04 0.06 0.09 0.10 0.10 0.09 0.08
0.03 0.04 0.05 0.04 0.03 0.02 0.02 0.01 0.01 0.01 0.01 0.02 0.02 0.02 0.03 0.02 0.04 0.05 0.04 0.04 0.03 0.05 0.07 0.07 0.05 0.05 0.06 0.06 0.07 0.08 0.13 0.12 0.07 0.08 0.08 0.06 0.05 0.06 0.09 0.09 0.10 0.10 0.09
0.13 0.11 0.08 0.05 0.03 0.02 0.02 0.01 0.01 0.01 0.02 0.03 0.03 0.02 0.03 0.03 0.04 0.04 0.04 0.04 0.04 0.04 0.06 0.06 0.07 0.06 0.07 0.06 0.07 0.08 0.09 0.08 0.07 0.06 0.07 0.06 0.05 0.06 0.08 0.08 0.08 0.10 0.10
0.05 0.08 0.08 0.04 0.03 0.03 0.01 0.02 0.03 0.03 0.04 0.04 0.04 0.03 0.03 0.03 0.04 0.04 0.04 0.04 0.05 0.05 0.06 0.06 0.07 0.08 0.08 0.08 0.09 0.10 0.08 0.06 0.05 0.05 0.05 0.05 0.04 0.06 0.07 0.08 0.08 0.10 0.10
0.01 0.02 0.03 0.02 0.02 0.02 0.02 0.02 0.03 0.04 0.05 0.05 0.04 0.04 0.04 0.04 0.04 0.05 0.05 0.07 0.07 0.07 0.08 0.07 0.09 0.12 0.11 0.11 0.09 0.10 0.09 0.06 0.06 0.04 0.05 0.04 0.05 0.06 0.07 0.08 0.08 0.09 0.09
0.02 0.03 0.03 0.02 0.01 0.01 0.02 0.02 0.04 0.05 0.04 0.03 0.03 0.03 0.03 0.04 0.04 0.04 0.04 0.05 0.07 0.07 0.09 0.10 0.11 0.11 0.12 0.13 0.11 0.10 0.08 0.06 0.05 0.04 0.06 0.05 0.04 0.06 0.07 0.08 0.09 0.10 0.10
0.01 0.01 0.01 0.01 0.01 0.02 0.03 0.03 0.05 0.04 0.04 0.02 0.02 0.03 0.04 0.04 0.03 0.02 0.03 0.05 0.07 0.07 0.08 0.09 0.11 0.08 0.07 0.07 0.07 0.06 0.05 0.05 0.04 0.03 0.06 0.06 0.05 0.05 0.06 0.07 0.08 0.10 0.10
0.04 0.03 0.02 0.02 0.02 0.03 0.04 0.04 0.05 0.02 0.02 0.02 0.02 0.04 0.04 0.04 0.03 0.02 0.03 0.05 0.07 0.07 0.06 0.05 0.05 0.05 0.06 0.05 0.04 0.04 0.04 0.05 0.04 0.03 0.05 0.06 0.04 0.04 0.05 0.06 0.08 0.10 0.12
0.03 0.04 0.03 0.03 0.03 0.04 0.05 0.05 0.03 0.03 0.03 0.06 0.07 0.07 0.07 0.06 0.05 0.04 0.04 0.05 0.06 0.06 0.06 0.05 0.04 0.03 0.04 0.05 0.06 0.05 0.06 0.05 0.05 0.05 0.04 0.05 0.04 0.02 0.03 0.03 0.04 0.07 0.11
0.03 0.04 0.04 0.04 0.04 0.05 0.05 0.04 0.03 0.02 0.03 0.05 0.07 0.08 0.08 0.08 0.07 0.06 0.06 0.06 0.06 0.07 0.07 0.06 0.04 0.03 0.04 0.06 0.05 0.06 0.07 0.08 0.07 0.06 0.04 0.04 0.04 0.03 0.04 0.04 0.04 0.06 0.07
0.02 0.03 0.04 0.05 0.05 0.06 0.06 0.05 0.03 0.02 0.02 0.03 0.03 0.04 0.05 0.06 0.06 0.07 0.07 0.08 0.09 0.09 0.09 0.07 0.05 0.04 0.06 0.06 0.05 0.05 0.07 0.09 0.08 0.05 0.05 0.05 0.05 0.03 0.04 0.04 0.04 0.06 0.05
0.03 0.04 0.04 0.05 0.05 0.06 0.05 0.05 0.04 0.04 0.03 0.03 0.03 0.03 0.03 0.04 0.05 0.07 0.08 0.09 0.09 0.09 0.09 0.07 0.05 0.06 0.06 0.07 0.06 0.07 0.08 0.08 0.08 0.06 0.04 0.05 0.05 0.02 0.03 0.05 0.06 0.07 0.07
0.02 0.03 0.03 0.03 0.06 0.07 0.06 0.07 0.06 0.05 0.05 0.06 0.06 0.05 0.05 0.05 0.06 0.07 0.07 0.07 0.08 0.08 0.09 0.06 0.05 0.05 0.06 0.08 0.10 0.10 0.09 0.08 0.07 0.06 0.05 0.05 0.05 0.03 0.05 0.04 0.05 0.07 0.08
0.01 0.02 0.03 0.03 0.04 0.05 0.07 0.08 0.09 0.10 0.10 0.09 0.07 0.06 0.06 0.06 0.07 0.07 0.07 0.05 0.06 0.07 0.08 0.09 0.06 0.05 0.05 0.08 0.09 0.09 0.09 0.10 0.08 0.06 0.05 0.04 0.04 0.04 0.03 0.03 0.05 0.06 0.06
0.01 0.02 0.04 0.05 0.05 0.05 0.06 0.06 0.10 0.13 0.13 0.10 0.07 0.05 0.05 0.05 0.07 0.07 0.06 0.05 0.05 0.06 0.08 0.09 0.08 0.07 0.07 0.08 0.08 0.09 0.08 0.08 0.08 0.06 0.04 0.04 0.05 0.05 0.04 0.04 0.04 0.05 0.04
0.02 0.02 0.03 0.05 0.05 0.05 0.05 0.04 0.04 0.09 0.12 0.08 0.05 0.03 0.03 0.03 0.05 0.05 0.05 0.05 0.05 0.05 0.06 0.08 0.06 0.07 0.08 0.07 0.07 0.08 0.07 0.05 0.06 0.06 0.04 0.04 0.04 0.06 0.05 0.05 0.05 0.05 0.04
0.02 0.02 0.03 0.04 0.05 0.05 0.04 0.03 0.04 0.07 0.10 0.08 0.05 0.04 0.03 0.03 0.03 0.04 0.04 0.04 0.05 0.05 0.06 0.08 0.06 0.06 0.06 0.07 0.07 0.09 0.09 0.06 0.05 0.04 0.04 0.04 0.05 0.05 0.05 0.05 0.06 0.06 0.06
0.02 0.02 0.02 0.04 0.05 0.05 0.04 0.03 0.05 0.07 0.08 0.06 0.05 0.05 0.05 0.04 0.04 0.04 0.05 0.05 0.05 0.06 0.05 0.06 0.07 0.08 0.06 0.07 0.07 0.08 0.09 0.07 0.06 0.05 0.04 0.05 0.05 0.05 0.05 0.05 0.06 0.06 0.05
MSLP
1009.73 1009.67 1009.74 1009.95 1010.22 1010.50 1010.73 1010.87 1010.92 1010.92 1010.91 1010.95 1011.09 1011.34 1011.70 1012.13 1012.59 1013.03 1013.41 1013.73 1013.99 1014.22 1014.45 1014.69 1014.95 1015.23 1015.49 1015.71 1015.88 1015.98 1016.03 1016.05 1016.07 1016.13 1016.24 1016.41 1016.63 1016.88 1017.12 1017.33 1017.50 1017.63 1017.73
1009.68 1009.72 1009.89 1010.16 1010.49 1010.79 1011.03 1011.16 1011.19 1011.16 1011.12 1011.14 1011.26 1011.51 1011.88 1012.33 1012.81 1013.26 1013.65 1013.96 1014.21 1014.42 1014.63 1014.86 1015.14 1015.44 1015.73 1015.99 1016.18 1016.29 1016.33 1016.31 1016.29 1016.29 1016.36 1016.50 1016.71 1016.96 1017.23 1017.48 1017.70 1017.86 1017.98
1009.64 1009.77 1010.01 1010.35 1010.73 1011.07 1011.32 1011.46 1011.49 1011.45 1011.40 1011.40 1011.51 1011.75 1012.10 1012.53 1012.99 1013.43 1013.79 1014.08 1014.31 1014.50 1014.71 1014.96 1015.25 1015.58 1015.91 1016.20 1016.41 1016.52 1016.54 1016.49 1016.42 1016.37 1016.39 1016.50 1016.69 1016.96 1017.25 1017.54 1017.79 1018.00 1018.15
1009.61 1009.81 1010.12 1010.51 1010.93 1011.30 1011.59 1011.76 1011.81 1011.79 1011.74 1011.75 1011.84 1012.06 1012.38 1012.77 1013.20 1013.59 1013.91 1014.17 1014.38 1014.57 1014.78 1015.04 1015.36 1015.71 1016.07 1016.37 1016.58 1016.68 1016.67 1016.58 1016.46 1016.37 1016.34 1016.42 1016.61 1016.87 1017.19 1017.51 1017.80 1018.04 1018.23
1009.59 1009.84 1010.20 1010.62 1011.07 1011.49 1011.81 1012.02 1012.12 1012.13 1012.12 1012.14 1012.23 1012.43 1012.72 1013.07 1013.44 1013.79 1014.08 1014.31 1014.50 1014.69 1014.91 1015.18 1015.52 1015.88 1016.24 1016.54 1016.73 1016.79 1016.74 1016.60 1016.43 1016.30 1016.25 1016.31 1016.48 1016.75 1017.08 1017.42 1017.73 1017.99 1018.20
1009.60 1009.87 1010.25 1010.69 1011.17 1011.61 1011.98 1012.24 1012.39 1012.46 1012.49 1012.53 1012.64 1012.82 1013.08 1013.40 1013.73 1014.04 1014.30 1014.52 1014.70 1014.90 1015.13 1015.41 1015.75 1016.11 1016.44 1016.70 1016.85 1016.87 1016.76 1016.57 1016.37 1016.20 1016.13 1016.18 1016.36 1016.63 1016.96 1017.30 1017.61 1017.87 1018.07
1009.63 1009.91 1010.28 1010.73 1011.21 1011.68 1012.08 1012.39 1012.59 1012.72 1012.79 1012.87 1013.00 1013.18 1013.43 1013.72 1014.03 1014.32 1014.57 1014.78 1014.98 1015.19 1015.43 1015.72 1016.04 1016.37 1016.66 1016.86 1016.94 1016.89 1016.73 1016.51 1016.27 1016.10 1016.03 1016.09 1016.27 1016.54 1016.87 1017.19 1017.48 1017.70 1017.87
1009.71 1009.97 1010.33 1010.76 1011.24 1011.71 1012.13 1012.47 1012.71 1012.88 1013.01 1013.12 1013.26 1013.46 1013.71 1013.99 1014.29 1014.57 1014.83 1015.07 1015.29 1015.51 1015.76 1016.04 1016.34 1016.62 1016.85 1016.97 1016.99 1016.87 1016.67 1016.42 1016.18 1016.01 1015.96 1016.04 1016.24 1016.51 1016.82 1017.11 1017.35 1017.52 1017.63
1009.83 1010.07 1010.40 1010.81 1011.26 1011.72 1012.14 1012.49 1012.76 1012.96 1013.11 1013.25 1013.41 1013.62 1013.87 1014.16 1014.46 1014.76 1015.03 1015.29 1015.54 1015.78 1016.04 1016.31 1016.57 1016.80 1016.96 1017.02 1016.97 1016.81 1016.57 1016.31 1016.08 1015.95 1015.94 1016.05 1016.27 1016.54 1016.83 1017.08 1017.26 1017.36 1017.40
1009.98 1010.21 1010.52 1010.89 1011.32 1011.75 1012.16 1012.50 1012.77 1012.97 1013.13 1013.29 1013.46 1013.67 1013.93 1014.22 1014.53 1014.84 1015.14 1015.42 1015.69 1015.95 1016.21 1016.47 1016.70 1016.88 1016.98 1016.99 1016.89 1016.69 1016.45 1016.21 1016.01 1015.92 1015.96 1016.11 1016.35 1016.62 1016.89 1017.09 1017.20 1017.23 1017.19
1010.16 1010.39 1010.68 1011.04 1011.43 1011.82 1012.19 1012.51 1012.76 1012.95 1013.11 1013.26 1013.44 1013.65 1013.91 1014.20 1014.52 1014.85 1015.16 1015.46 1015.75 1016.02 1016.28 1016.51 1016.72 1016.86 1016.92 1016.89 1016.77 1016.57 1016.34 1016.13 1015.98 1015.93 1016.01 1016.20 1016.45 1016.73 1016.97 1017.13 1017.19 1017.15 1017.05
1010.35 1010.59 1010.88 1011.22 1011.58 1011.94 1012.27 1012.55 1012.78 1012.95 1013.09 1013.24 1013.41 1013.61 1013.87 1014.17 1014.49 1014.82 1015.14 1015.45 1015.74 1016.01 1016.26 1016.48 1016.66 1016.78 1016.82 1016.78 1016.65 1016.47 1016.27 1016.09 1015.99 1015.99 1016.10 1016.31 1016.57 1016.83 1017.05 1017.17 1017.19 1017.10 1016.95
1010.51 1010.78 1011.08 1011.41 1011.76 1012.09 1012.39 1012.64 1012.84 1012.99 1013.12 1013.25 1013.42 1013.62 1013.88 1014.17 1014.49 1014.82 1015.14 1015.45 1015.73 1015.99 1016.22 1016.43 1016.60 1016.70 1016.74 1016.70 1016.59 1016.44 1016.27 1016.13 1016.06 1016.08 1016.21 1016.41 1016.66 1016.90 1017.09 1017.18 1017.17 1017.06 1016.89
1010.61 1010.92 1011.25 1011.59 1011.93 1012.24 1012.52 1012.75 1012.94 1013.08 1013.21 1013.34 1013.51 1013.72 1013.98 1014.27 1014.59 1014.92 1015.23 1015.52 1015.79 1016.03 1016.25 1016.44 1016.58 1016.69 1016.73 1016.70 1016.61 1016.49 1016.35 1016.24 1016.18 1016.20 1016.31 1016.49 1016.70 1016.91 1017.06 1017.13 1017.11 1017.00 1016.82
1010.64 1011.00 1011.35 1011.71 1012.05 1012.37 1012.65 1012.88 1013.06 1013.21 1013.35 1013.50 1013.69 1013.91 1014.18 1014.49 1014.81 1015.13 1015.44 1015.72 1015.96 1016.18 1016.37 1016.54 1016.67 1016.76 1016.80 1016.79 1016.72 1016.62 1016.50 1016.39 1016.33 1016.32 1016.39 1016.51 1016.67 1016.83 1016.95 1017.00 1016.97 1016.87 1016.71
1010.57 1010.97 1011.36 1011.74 1012.10 1012.44 1012.73 1012.98 1013.19 1013.37 1013.54 1013.72 1013.93 1014.18 1014.47 1014.79 1015.12 1015.45 1015.75 1016.02 1016.25 1016.44 1016.61 1016.74 1016.85 1016.93 1016.96 1016.95 1016.89 1016.80 1016.68 1016.56 1016.47 1016.42 1016.42 1016.47 1016.56 1016.66 1016.73 1016.76 1016.74 1016.65 1016.53
1010.42 1010.85 1011.28 1011.69 1012.08 1012.44 1012.77 1013.05 1013.30 1013.52 1013.73 1013.95 1014.19 1014.48 1014.79 1015.13 1015.48 1015.82 1016.12 1016.39 1016.60 1016.77 1016.91 1017.02 1017.09 1017.14 1017.16 1017.14 1017.08 1016.98 1016.85 1016.71 1016.57 1016.47 1016.40 1016.37 1016.38 1016.41 1016.43 1016.44 1016.42 1016.35 1016.25
1010.19 1010.66 1011.11 1011.55 1011.98 1012.38 1012.75 1013.09 1013.38 1013.65 1013.91 1014.17 1014.45 1014.76 1015.10 1015.46 1015.83 1016.18 1016.49 1016.76 1016.97 1017.12 1017.23 1017.31 1017.35 1017.37 1017.36 1017.31 1017.23 1017.11 1016.97 1016.80 1016.63 1016.47 1016.33 1016.23 1016.16 1016.11 1016.09 1016.06 1016.03 1015.98 1015.90
1009.91 1010.40 1010.88 1011.36 1011.82 1012.28 1012.70 1013.09 1013.44 1013.76 1014.05 1014.35 1014.65 1014.98 1015.34 1015.72 1016.10 1016.46 1016.79 1017.07 1017.28 1017.43 1017.52 1017.57 1017.57 1017.55 1017.51 1017.43 1017.33 1017.19 1017.02 1016.84 1016.63 1016.43 1016.23 1016.06 1015.92 1015.81 1015.73 1015.67 1015.62 1015.57 1015.51
1009.58 1010.10 1010.62 1011.13 1011.64 1012.14 1012.62 1013.07 1013.47 1013.84 1014.17 1014.49 1014.81 1015.15 1015.51 1015.89 1016.28 1016.65 1016.99 1017.28 1017.50 1017.65 1017.74 1017.76 1017.74 1017.69 1017.61 1017.50 1017.37 1017.22 1017.04 1016.84 1016.62 1016.39 1016.16 1015.93 1015.73 1015.56 1015.42 1015.32 1015.24 1015.17 1015.11
1009.21 1009.77 1010.32 1010.88 1011.44 1012.00 1012.53 1013.04 1013.50 1013.90 1014.27 1014.60 1014.92 1015.25 1015.60 1015.97 1016.35 1016.73 1017.09 1017.39 1017.63 1017.79 1017.88 1017.90 1017.86 1017.78 1017.68 1017.55 1017.41 1017.24 1017.06 1016.86 1016.64 1016.39 1016.14 1015.88 1015.63 1015.40 1015.21 1015.04 1014.92 1014.83 1014.75
1008.79 1009.39 1009.99 1010.60 1011.21 1011.83 1012.43 1013.00 1013.50 1013.95 1014.34 1014.68 1015.00 1015.31 1015.64 1015.99 1016.36 1016.73 1017.09 1017.41 1017.67 1017.86 1017.96 1017.99 1017.96 1017.87 1017.75 1017.62 1017.47 1017.31 1017.13 1016.94 1016.73 1016.49 1016.22 1015.94 1015.65 1015.37 1015.11 1014.88 1014.70 1014.56 1014.46
1008.29 1008.95 1009.61 1010.27 1010.95 1011.63 1012.29 1012.92 1013.48 1013.97 1014.39 1014.74 1015.05 1015.34 1015.65 1015.97 1016.32 1016.69 1017.05 1017.39 1017.67 1017.88 1018.02 1018.07 1018.05 1017.98 1017.87 1017.74 1017.60 1017.45 1017.29 1017.12 1016.92 1016.69 1016.43 1016.13 1015.80 1015.47 1015.14 1014.85 1014.60 1014.40 1014.24
1007.72 1008.44 1009.16 1009.88 1010.62 1011.37 1012.09 1012.78 1013.41 1013.94 1014.39 1014.76 1015.07 1015.35 1015.63 1015.93 1016.26 1016.62 1016.98 1017.33 1017.64 1017.89 1018.06 1018.15 1018.16 1018.11 1018.03 1017.91 1017.79 1017.67 1017.53 1017.38 1017.21 1016.99 1016.73 1016.41 1016.06 1015.68 1015.29 1014.92 1014.59 1014.32 1014.10
1007.07 1007.85 1008.62 1009.40 1010.20 1011.01 1011.80 1012.55 1013.24 1013.83 1014.32 1014.71 1015.04 1015.32 1015.59 1015.88 1016.19 1016.53 1016.90 1017.26 1017.59 1017.87 1018.08 1018.21 1018.26 1018.25 1018.20 1018.12 1018.02 1017.92 1017.82 1017.69 1017.54 1017.33 1017.07 1016.75 1016.37 1015.94 1015.50 1015.06 1014.65 1014.31 1014.02
1006.36 1007.18 1008.00 1008.83 1009.68 1010.55 1011.40 1012.21 1012.95 1013.60 1014.14 1014.57 1014.93 1015.22 1015.50 1015.78 1016.09 1016.43 1016.79 1017.16 1017.51 1017.81 1018.06 1018.23 1018.33 1018.36 1018.34 1018.30 1018.23 1018.16 1018.08 1017.98 1017.84 1017.65 1017.40 1017.07 1016.67 1016.21 1015.72 1015.22 1014.75 1014.33 1013.98
Thickness
5810 5806 5794 5791 5788 5786 5785 5783 5782 5781 5780 5779 5778 5777 5776 5775 5774 5774 5773 5773 5773 5772 5772 5770 5769 5769 5768 5768 5767 5766 5765 5764 5763 5763 5762 5762 5761 5759 5759 5759 5759 5759 5755
5812 5805 5793 5790 5787 5785 5783 5781 5780 5779 5777 5777 5776 5775 5774 5773 5772 5772 5771 5771 5770 5770 5769 5768 5768 5767 5766 5766 5765 5764 5763 5762 5761 5761 5760 5760 5759 5758 5757 5756 5756 5756 5753
5810 5802 5793 5788 5785 5782 5781 5779 5777 5776 5775 5774 5773 5772 5771 5771 5770 5770 5769 5769 5768 5767 5766 5766 5765 5765 5764 5764 5763 5762 5761 5759 5759 5759 5760 5761 5758 5755 5754 5753 5753 5751 5750
5806 5800 5793 5786 5783 5780 5778 5776 5775 5774 5773 5771 5771 5770 5769 5768 5768 5767 5766 5766 5766 5764 5763 5762 5762 5762 5761 5761 5760 5760 5758 5758 5757 5758 5760 5760 5757 5753 5752 5751 5750 5749 5748
5803 5797 5790 5783 5780 5778 5775 5774 5772 5771 5770 5769 5768 5767 5766 5766 5765 5765 5764 5763 5763 5762 5761 5760 5759 5759 5759 5758 5758 5757 5756 5756 5756 5757 5759 5757 5755 5751 5750 5749 5747 5746 5745
5800 5796 5788 5781 5778 5775 5773 5771 5770 5768 5767 5766 5765 5764 5763 5763 5762 5762 5761 5760 5760 5759 5758 5757 5757 5756 5756 5756 5756 5755 5754 5754 5755 5758 5756 5754 5752 5748 5747 5746 5745 5744 5743
5799 5795 5787 5779 5775 5772 5770 5768 5767 5765 5764 5763 5762 5762 5760 5760 5759 5759 5758 5757 5757 5756 5755 5754 5754 5753 5753 5753 5753 5752 5752 5752 5755 5756 5753 5751 5749 5746 5745 5744 5743 5742 5741
5797 5793 5785 5776 5773 5770 5767 5765 5763 5762 5761 5760 5759 5759 5758 5757 5756 5756 5755 5755 5754 5753 5752 5751 5751 5751 5751 5750 5750 5750 5750 5750 5753 5754 5751 5749 5745 5744 5742 5742 5740 5740 5739
5795 5790 5784 5778 5772 5768 5765 5763 5761 5760 5758 5757 5756 5755 5755 5754 5754 5753 5752 5752 5751 5750 5750 5749 5748 5749 5748 5748 5748 5747 5747 5748 5752 5752 5751 5747 5743 5741 5740 5739 5738 5737 5737
5790 5787 5783 5779 5774 5770 5766 5761 5759 5758 5756 5755 5753 5753 5752 5752 5752 5751 5750 5749 5748 5748 5747 5746 5746 5746 5746 5746 5745 5745 5746 5747 5751 5751 5749 5745 5741 5740 5738 5738 5736 5735 5735
5784 5782 5781 5778 5774 5771 5768 5762 5758 5756 5754 5753 5752 5751 5751 5753 5753 5751 5749 5746 5745 5745 5744 5744 5744 5744 5744 5744 5744 5744 5745 5749 5749 5748 5746 5742 5740 5738 5737 5736 5735 5733 5733
5779 5779 5778 5776 5772 5770 5767 5762 5760 5758 5755 5754 5753 5752 5752 5751 5751 5750 5746 5744 5743 5742 5742 5742 5742 5742 5743 5746 5744 5743 5747 5747 5747 5746 5743 5739 5738 5737 5736 5735 5733 5732 5731
5780 5777 5776 5774 5771 5768 5765 5762 5759 5757 5754 5753 5752 5750 5749 5749 5749 5748 5747 5744 5743 5742 5743 5742 5742 5743 5744 5745 5745 5746 5745 5746 5746 5745 5741 5738 5736 5735 5734 5733 5732 5731 5730
5778 5775 5773 5771 5768 5765 5763 5761 5757 5756 5753 5752 5750 5748 5748 5747 5746 5746 5745 5744 5743 5743 5742 5742 5742 5741 5741 5742 5743 5743 5744 5744 5743 5742 5739 5736 5734 5733 5733 5732 5730 5729 5729
5776 5773 5770 5767 5764 5761 5759 5757 5756 5754 5752 5750 5747 5746 5744 5745 5744 5743 5742 5741 5742 5741 5740 5739 5740 5738 5739 5740 5740 5741 5741 5741 5740 5740 5738 5734 5733 5731 5731 5730 5728 5728 5727
5773 5771 5768 5765 5762 5759 5756 5754 5753 5752 5749 5749 5746 5744 5741 5741 5740 5740 5739 5738 5739 5739 5738 5737 5737 5736 5736 5737 5737 5737 5737 5738 5737 5736 5737 5734 5731 5730 5729 5728 5727 5726 5725
5770 5768 5765 5762 5759 5756 5754 5752 5751 5750 5748 5746 5744 5741 5739 5738 5737 5736 5737 5736 5736 5735 5733 5733 5733 5733 5733 5734 5733 5733 5734 5734 5735 5734 5734 5734 5732 5729 5727 5726 5725 5724 5723
5770 5766 5763 5762 5758 5754 5751 5749 5748 5748 5745 5743 5741 5739 5737 5735 5734 5733 5733 5733 5732 5731 5731 5730 5731 5731 5730 5729 5729 5730 5731 5731 5731 5731 5732 5732 5732 5731 5727 5725 5724 5723 5722
5767 5764 5761 5759 5756 5752 5749 5746 5745 5743 5742 5741 5739 5737 5734 5732 5732 5731 5731 5730 5728 5729 5729 5729 5728 5727 5726 5725 5727 5727 5728 5728 5728 5730 5730 5730 5729 5728 5728 5725 5723 5722 5720
5765 5762 5758 5756 5753 5750 5747 5744 5742 5740 5738 5737 5736 5734 5731 5730 5729 5729 5728 5726 5725 5726 5725 5724 5723 5723 5722 5722 5724 5724 5724 5725 5726 5726 5727 5727 5727 5726 5726 5725 5723 5721 5719
5761 5758 5755 5752 5749 5746 5743 5740 5737 5734 5734 5734 5733 5730 5729 5728 5727 5725 5726 5723 5722 5722 5721 5721 5720 5719 5718 5719 5718 5718 5719 5721 5722 5722 5724 5725 5725 5724 5723 5722 5722 5721 5719
5757 5754 5751 5748 5746 5744 5741 5738 5736 5733 5731 5730 5729 5727 5725 5725 5724 5724 5722 5721 5721 5719 5717 5717 5716 5717 5717 5717 5715 5714 5713 5714 5716 5719 5720 5720 5721 5721 5721 5721 5719 5718 5717
5754 5751 5749 5745 5743 5740 5738 5736 5732 5729 5728 5727 5725 5724 5722 5722 5721 5720 5719 5718 5717 5718 5716 5714 5714 5713 5712 5714 5715 5714 5711 5710 5712 5714 5715 5717 5717 5717 5718 5718 5717 5715 5714
5752 5750 5746 5742 5739 5737 5735 5732 5729 5726 5724 5723 5722 5722 5721 5719 5719 5717 5716 5715 5714 5715 5713 5713 5713 5712 5710 5710 5711 5712 5713 5713 5708 5707 5710 5712 5713 5712 5713 5714 5713 5711 5710
5750 5747 5743 5739 5736 5734 5732 5730 5727 5725 5723 5721 5720 5719 5717 5717 5716 5715 5714 5713 5712 5712 5711 5710 5709 5709 5710 5709 5709 5708 5708 5708 5709 5706 5704 5706 5708 5709 5709 5708 5708 5707 5705
5747 5744 5740 5736 5733 5731 5730 5728 5724 5722 5719 5717 5716 5716 5715 5715 5714 5712 5712 5711 5710 5710 5709 5708 5706 5706 5706 5705 5705 5705 5704 5704 5704 5704 5702 5700 5701 5703 5704 5704 5704 5703 5702